Tappahannock, VA

3:26 AM EDT on May 28, 2017 (GMT -0400)
Tappahannock

Weather History for KXSA - March, 2013

Change the Weather History Date:

Thursday, March 7, 2013

  Actual Average (KOFP) Record (KOFP)
Temperature  
Mean Temperature 43 °F -  
Max Temperature 50 °F 56 °F 83 °F (1956)
Min Temperature 36 °F 32 °F 7 °F (1960)
Degree Days  
Heating Degree Days 22    
Moisture  
Dew Point 27 °F    
Average Humidity 54    
Maximum Humidity 74    
Minimum Humidity 34    
Precipitation  
Precipitation 0.00 in - - ()
Sea Level Pressure  
Sea Level Pressure 30.06 in    
Wind  
Wind Speed 10 mph (NW)    
Max Wind Speed 18 mph    
Max Gust Speed 29 mph    
Visibility 10 miles    
Events      
Averages and records for this station are not official NWS values.
T = Trace of Precipitation, MM = Missing Value Source: NWS Daily Summary

Daily Weather History Graph

Daily Weather History Graph

Search for Another Location

Airport or City:

Trip Planner

Search our weather history database for the weather conditions in past years. The results will help you decide how hot, cold, wet, or windy it might be!

Date:

Astronomy

Mar. 07, 2013 Rise Set
Actual Time 6:30 AM EST 6:07 PM EST
Civil Twilight 6:04 AM EST 6:33 PM EST
Nautical Twilight 5:33 AM EST 7:03 PM EST
Astronomical Twilight 5:03 AM EST 7:34 PM EST
Moon 3:24 AM EST (3/7) 1:56 PM EST (3/7)
Length of Visible Light 12h 29m
Length of Day
11h 37m
Waning Crescent, 20% of the Moon is Illuminated
Mar 7
Waning Crescent
Mar 11
New
Mar 19
First Quarter
Mar 27
Full
Apr 3
Last Quarter

Hourly Weather History & Observations

Time (EST) Temp. Windchill Dew Point Humidity Pressure Visibility Wind Dir Wind Speed Gust Speed Precip Events Conditions
12:15 AM 39.6 °F 33.5 °F 31.8 °F 74% 29.95 in 10.0 mi NW 9.2 mph 21.9 mph N/A   Overcast
12:35 AM 40.1 °F 32.7 °F 31.1 °F 70% 29.95 in 10.0 mi NW 12.7 mph 19.6 mph N/A   Overcast
12:55 AM 40.1 °F 33.6 °F 30.7 °F 69% 29.95 in 10.0 mi NW 10.4 mph 20.7 mph N/A   Overcast
1:15 AM 40.3 °F 33.4 °F 30.0 °F 67% 29.96 in 10.0 mi NNW 11.5 mph 21.9 mph N/A   Overcast
1:35 AM 40.3 °F 33.4 °F 29.8 °F 66% 29.96 in 10.0 mi NNW 11.5 mph 18.4 mph N/A   Overcast
1:55 AM 40.1 °F 34.7 °F 30.2 °F 68% 29.96 in 10.0 mi NNW 8.1 mph 20.7 mph N/A   Overcast
2:15 AM 40.1 °F 34.1 °F 30.4 °F 68% 29.96 in 10.0 mi NW 9.2 mph 17.3 mph N/A   Overcast
2:35 AM 40.1 °F 34.1 °F 30.4 °F 68% 29.96 in 10.0 mi NW 9.2 mph 17.3 mph N/A   Overcast
2:55 AM 39.7 °F 34.3 °F 30.6 °F 70% 29.97 in 10.0 mi NW 8.1 mph - N/A   Overcast
3:15 AM 39.7 °F 34.3 °F 30.4 °F 69% 29.97 in 10.0 mi NW 8.1 mph 18.4 mph N/A   Overcast
3:35 AM 39.4 °F 33.2 °F 30.2 °F 70% 29.98 in 10.0 mi NW 9.2 mph - N/A   Overcast
3:55 AM 39.4 °F 34.5 °F 30.2 °F 70% 29.99 in 10.0 mi NW 6.9 mph - N/A   Overcast
4:15 AM 39.2 °F 33.6 °F 30.0 °F 70% 30.00 in 10.0 mi NW 8.1 mph - N/A   Overcast
4:35 AM 39.2 °F 31.2 °F 29.7 °F 69% 30.00 in 10.0 mi NW 13.8 mph 20.7 mph N/A   Overcast
4:55 AM 39.2 °F 33.6 °F 29.3 °F 68% 30.01 in 10.0 mi NNW 8.1 mph 17.3 mph N/A   Overcast
5:15 AM 39.2 °F 33.0 °F 29.1 °F 67% 30.02 in 10.0 mi NW 9.2 mph 17.3 mph N/A   Overcast
5:35 AM 38.7 °F 33.6 °F 28.8 °F 68% 30.03 in 10.0 mi NW 6.9 mph - N/A   Overcast
5:55 AM 37.8 °F 34.2 °F 28.4 °F 69% 30.03 in 10.0 mi NW 4.6 mph - N/A   Scattered Clouds
6:15 AM 37.6 °F 32.3 °F 28.4 °F 69% 30.04 in 10.0 mi NW 6.9 mph - N/A   Clear
6:35 AM 36.9 °F 33.1 °F 28.4 °F 71% 30.05 in 10.0 mi NW 4.6 mph - N/A   Clear
6:55 AM 36.7 °F 34.1 °F 28.4 °F 72% 30.05 in 10.0 mi NW 3.5 mph - N/A   Clear
7:15 AM 37.0 °F 32.4 °F 28.9 °F 73% 30.06 in 10.0 mi WNW 5.8 mph - N/A   Clear
7:35 AM 37.9 °F 33.5 °F 29.5 °F 72% 30.07 in 10.0 mi NW 5.8 mph - N/A   Clear
7:55 AM 39.2 °F 35.0 °F 29.7 °F 69% 30.08 in 10.0 mi WNW 5.8 mph - N/A   Clear
8:15 AM 40.3 °F 34.4 °F 29.3 °F 65% 30.08 in 10.0 mi NNW 9.2 mph - N/A   Clear
8:35 AM 41.2 °F 35.0 °F 28.2 °F 60% 30.08 in 10.0 mi NW 10.4 mph 17.3 mph N/A   Clear
8:55 AM 42.1 °F 35.2 °F 27.7 °F 57% 30.08 in 10.0 mi NW 12.7 mph 24.2 mph N/A   Clear
9:15 AM 42.8 °F 35.4 °F 27.0 °F 54% 30.09 in 10.0 mi NW 15.0 mph 21.9 mph N/A   Clear
9:35 AM 43.7 °F 36.9 °F 26.6 °F 51% 30.09 in 10.0 mi NW 13.8 mph 21.9 mph N/A   Clear
9:55 AM 44.1 °F 37.7 °F 25.9 °F 49% 30.10 in 10.0 mi NNW 12.7 mph 18.4 mph N/A   Clear
10:15 AM 44.6 °F 38.4 °F 26.1 °F 48% 30.10 in 10.0 mi NW 12.7 mph 20.7 mph N/A   Scattered Clouds
10:35 AM 44.8 °F 38.0 °F 25.0 °F 46% 30.10 in 10.0 mi NW 15.0 mph 28.8 mph N/A   Scattered Clouds
10:55 AM 46.2 °F 39.8 °F 25.2 °F 44% 30.09 in 10.0 mi NW 15.0 mph 21.9 mph N/A   Scattered Clouds
11:15 AM 46.8 °F - 24.8 °F 42% 30.09 in 10.0 mi NNW 17.3 mph 26.5 mph N/A   Scattered Clouds
11:35 AM 48.0 °F - 25.3 °F 41% 30.09 in 10.0 mi NW 13.8 mph 19.6 mph N/A   Clear
11:55 AM 48.2 °F - 24.3 °F 39% 30.09 in 10.0 mi NW 13.8 mph 27.6 mph N/A   Clear
12:15 PM 48.7 °F - 24.1 °F 38% 30.09 in 10.0 mi WNW 18.4 mph 27.6 mph N/A   Clear
12:35 PM 49.3 °F - 24.6 °F 38% 30.08 in 10.0 mi WNW 11.5 mph 23.0 mph N/A   Scattered Clouds
12:55 PM 49.1 °F - 25.0 °F 39% 30.07 in 10.0 mi NW 8.1 mph 20.7 mph N/A   Scattered Clouds
1:15 PM 49.8 °F - 24.4 °F 37% 30.06 in 10.0 mi WNW 16.1 mph 25.3 mph N/A   Scattered Clouds
1:35 PM 49.6 °F - 24.3 °F 37% 30.06 in 10.0 mi NW 15.0 mph 21.9 mph N/A   Scattered Clouds
1:55 PM 50.0 °F - 23.7 °F 36% 30.05 in 10.0 mi WNW 15.0 mph 26.5 mph N/A   Scattered Clouds
2:15 PM 50.2 °F - 23.7 °F 36% 30.05 in 10.0 mi NW 15.0 mph 25.3 mph N/A   Clear
2:35 PM 50.2 °F - 22.8 °F 34% 30.05 in 10.0 mi WNW 12.7 mph 23.0 mph N/A   Clear
2:55 PM 50.0 °F - 22.8 °F 34% 30.06 in 10.0 mi WNW 11.5 mph 23.0 mph N/A   Clear
3:15 PM 49.6 °F - 22.8 °F 35% 30.06 in 10.0 mi WNW 13.8 mph 21.9 mph N/A   Clear
3:35 PM 49.6 °F - 24.1 °F 37% 30.07 in 10.0 mi WNW 9.2 mph 25.3 mph N/A   Clear
3:55 PM 48.6 °F - 23.7 °F 38% 30.08 in 10.0 mi WNW 13.8 mph 20.7 mph N/A   Clear
4:15 PM 48.6 °F - 22.6 °F 36% 30.08 in 10.0 mi WNW 11.5 mph 21.9 mph N/A   Clear
4:35 PM 46.9 °F - 22.6 °F 38% 30.08 in 10.0 mi WNW 8.1 mph 17.3 mph N/A   Scattered Clouds
4:55 PM 47.5 °F - 22.1 °F 37% 30.09 in 10.0 mi NW 11.5 mph 18.4 mph N/A   Scattered Clouds
5:15 PM 46.0 °F 41.4 °F 22.8 °F 40% 30.09 in 10.0 mi NW 9.2 mph 20.7 mph N/A   Clear
5:35 PM 46.4 °F 42.4 °F 23.2 °F 40% 30.10 in 10.0 mi WNW 8.1 mph 17.3 mph N/A   Mostly Cloudy
5:55 PM 46.0 °F 41.4 °F 23.0 °F 40% 30.11 in 10.0 mi WNW 9.2 mph 16.1 mph N/A   Mostly Cloudy
6:15 PM 45.0 °F 40.6 °F 23.7 °F 43% 30.11 in 10.0 mi WNW 8.1 mph - N/A   Scattered Clouds
6:35 PM 44.6 °F 40.2 °F 24.6 °F 45% 30.12 in 10.0 mi WNW 8.1 mph - N/A   Mostly Cloudy
6:55 PM 44.1 °F 40.1 °F 25.2 °F 47% 30.13 in 10.0 mi West 6.9 mph - N/A   Mostly Cloudy
8:35 PM 42.3 °F 36.3 °F 25.3 °F 51% 30.15 in 10.0 mi WNW 10.4 mph - N/A   Clear
8:55 PM 41.9 °F 37.5 °F 25.2 °F 52% 30.14 in 10.0 mi WNW 6.9 mph - N/A   Clear
9:15 PM 41.0 °F 36.4 °F 25.2 °F 53% 30.14 in 10.0 mi West 6.9 mph - N/A   Clear
9:35 PM 40.3 °F 36.3 °F 25.3 °F 55% 30.14 in 10.0 mi West 5.8 mph - N/A   Clear
9:55 PM 39.6 °F 35.4 °F 25.3 °F 57% 30.14 in 10.0 mi West 5.8 mph - N/A   Clear
10:15 PM 38.7 °F 35.2 °F 25.3 °F 59% 30.14 in 10.0 mi West 4.6 mph - N/A   Clear
10:35 PM 38.1 °F 33.7 °F 25.3 °F 60% 30.14 in 10.0 mi West 5.8 mph - N/A   Clear
10:55 PM 38.3 °F 33.2 °F 25.3 °F 60% 30.15 in 10.0 mi West 6.9 mph - N/A   Clear
11:15 PM 38.5 °F 33.4 °F 25.3 °F 59% 30.15 in 10.0 mi WNW 6.9 mph - N/A   Clear
11:35 PM 38.7 °F 34.3 °F 25.3 °F 59% 30.14 in 10.0 mi WNW 5.8 mph - N/A   Clear
11:55 PM 38.8 °F 33.8 °F 25.3 °F 58% 30.14 in 10.0 mi WNW 6.9 mph - N/A   Clear